| time (UTC) | temp F | wind direction | speed MPH | gust MPH | rain 1hr in | rain 24hr in | rain mn in | humidity % | barometer mb |
| 20260506013519 | 70 | 7 | 4.0 | 9.0 | 0.00 | 0.00 | 0.00 | 43 | 1013.0 |
| 20260506012517 | 70 | 16 | 5.0 | 10.0 | 0.00 | 0.00 | 0.00 | 43 | 1012.9 |
| 20260506011518 | 71 | 14 | 5.0 | 9.0 | 0.00 | 0.00 | 0.00 | 42 | 1012.8 |
| 20260506010518 | 71 | 24 | 5.0 | 11.0 | 0.00 | 0.00 | 0.00 | 41 | 1012.7 |
| 20260506005518 | 73 | 11 | 7.0 | 13.0 | 0.00 | 0.00 | 0.00 | 40 | 1012.6 |
| 20260506004518 | 75 | 46 | 5.0 | 11.0 | 0.00 | 0.00 | 0.00 | 38 | 1012.6 |
| 20260506003518 | 74 | 46 | 4.0 | 12.0 | 0.00 | 0.00 | 0.00 | 37 | 1012.4 |
| 20260506002518 | 74 | 33 | 5.0 | 14.0 | 0.00 | 0.00 | 0.00 | 36 | 1012.4 |
| 20260506001519 | 74 | 41 | 4.0 | 8.0 | 0.00 | 0.00 | 0.00 | 35 | 1012.3 |
| 20260506000518 | 74 | 54 | 4.0 | 10.0 | 0.00 | 0.00 | 0.00 | 35 | 1012.2 |
| 20260505235520 | 75 | 48 | 4.0 | 9.0 | 0.00 | 0.00 | 0.00 | 35 | 1012.1 |
| 20260505234519 | 76 | 48 | 4.0 | 10.0 | 0.00 | 0.00 | 0.00 | 34 | 1012.2 |
| 20260505233516 | 75 | 20 | 5.0 | 12.0 | 0.00 | 0.00 | 0.00 | 33 | 1012.1 |
| 20260505232537 | 75 | 60 | 4.0 | 9.0 | 0.00 | 0.00 | 0.00 | 34 | 1012.3 |
| 20260505231517 | 75 | 85 | 3.0 | 9.0 | 0.00 | 0.00 | 0.00 | 34 | 1012.2 |
| 20260505230537 | 76 | 39 | 2.0 | 6.0 | 0.00 | 0.00 | 0.00 | 34 | 1012.3 |
| 20260505225517 | 76 | 53 | 5.0 | 11.0 | 0.00 | 0.00 | 0.00 | 33 | 1012.3 |
| 20260505224520 | 75 | 48 | 3.0 | 9.0 | 0.00 | 0.00 | 0.00 | 33 | 1012.4 |
| 20260505223520 | 75 | 77 | 4.0 | 18.0 | 0.00 | 0.00 | 0.00 | 34 | 1012.4 |
| 20260505222517 | 75 | 70 | 3.0 | 8.0 | 0.00 | 0.00 | 0.00 | 34 | 1012.4 |
| 20260505221517 | 76 | 87 | 4.0 | 11.0 | 0.00 | 0.00 | 0.00 | 33 | 1012.4 |
| 20260505220518 | 75 | 29 | 4.0 | 7.0 | 0.00 | 0.00 | 0.00 | 34 | 1012.5 |
| 20260505215538 | 76 | 68 | 4.0 | 8.0 | 0.00 | 0.00 | 0.00 | 33 | 1012.6 |
| 20260505214521 | 74 | 51 | 4.0 | 9.0 | 0.00 | 0.00 | 0.00 | 34 | 1012.5 |
| 20260505213518 | 75 | 60 | 3.0 | 8.0 | 0.00 | 0.00 | 0.00 | 34 | 1012.7 |
| 20260505212518 | 75 | 72 | 4.0 | 9.0 | 0.00 | 0.00 | 0.00 | 35 | 1012.7 |
| 20260505211519 | 74 | 49 | 4.0 | 9.0 | 0.00 | 0.00 | 0.00 | 34 | 1012.7 |
| 20260505210519 | 74 | 41 | 5.0 | 9.0 | 0.00 | 0.00 | 0.00 | 35 | 1012.8 |
| 20260505205520 | 75 | 80 | 5.0 | 9.0 | 0.00 | 0.00 | 0.00 | 35 | 1012.7 |
| 20260505204519 | 74 | 51 | 2.0 | 6.0 | 0.00 | 0.00 | 0.00 | 34 | 1012.7 |
| 20260505203520 | 73 | 32 | 6.0 | 13.0 | 0.00 | 0.00 | 0.00 | 36 | 1012.7 |
| 20260505202517 | 74 | 34 | 5.0 | 10.0 | 0.00 | 0.00 | 0.00 | 36 | 1012.8 |
| 20260505201516 | 74 | 78 | 3.0 | 9.0 | 0.00 | 0.00 | 0.00 | 37 | 1012.9 |
| 20260505200520 | 73 | 81 | 3.0 | 11.0 | 0.00 | 0.00 | 0.00 | 38 | 1013.0 |
| 20260505195520 | 72 | 44 | 5.0 | 12.0 | 0.00 | 0.00 | 0.00 | 39 | 1013.0 |
| 20260505194517 | 71 | 45 | 4.0 | 8.0 | 0.00 | 0.00 | 0.00 | 40 | 1013.1 |
| 20260505193538 | 71 | 35 | 5.0 | 12.0 | 0.00 | 0.00 | 0.00 | 41 | 1013.0 |
| 20260505192518 | 71 | 29 | 6.0 | 12.0 | 0.00 | 0.00 | 0.00 | 40 | 1013.1 |
| 20260505191538 | 71 | 67 | 4.0 | 10.0 | 0.00 | 0.00 | 0.00 | 40 | 1013.1 |
| 20260505190518 | 71 | 48 | 3.0 | 9.0 | 0.00 | 0.00 | 0.00 | 40 | 1013.1 |
| 20260505185518 | 70 | 84 | 2.0 | 9.0 | 0.00 | 0.00 | 0.00 | 40 | 1013.1 |
| 20260505184538 | 70 | 41 | 4.0 | 8.0 | 0.00 | 0.00 | 0.00 | 39 | 1013.2 |
| 20260505183518 | 69 | 49 | 3.0 | 9.0 | 0.00 | 0.00 | 0.00 | 40 | 1013.2 |
| 20260505182518 | 69 | 37 | 2.0 | 8.0 | 0.00 | 0.00 | 0.00 | 39 | 1013.1 |
| 20260505181519 | 70 | 224 | 3.0 | 6.0 | 0.00 | 0.00 | 0.00 | 42 | 1013.1 |
| 20260505180539 | 69 | 227 | 2.0 | 7.0 | 0.00 | 0.00 | 0.00 | 43 | 1013.2 |
| 20260505175515 | 68 | 144 | 2.0 | 7.0 | 0.00 | 0.00 | 0.00 | 43 | 1013.2 |
| 20260505174519 | 66 | 85 | 2.0 | 7.0 | 0.00 | 0.00 | 0.00 | 44 | 1013.2 |
| 20260505173539 | 66 | 216 | 3.0 | 9.0 | 0.00 | 0.00 | 0.00 | 44 | 1013.1 |
| 20260505172519 | 64 | 219 | 2.0 | 8.0 | 0.00 | 0.00 | 0.00 | 47 | 1013.1 |
| 20260505171517 | 63 | 17 | 3.0 | 8.0 | 0.00 | 0.00 | 0.00 | 47 | 1013.2 |
| 20260505170536 | 63 | 52 | 3.0 | 6.0 | 0.00 | 0.00 | 0.00 | 46 | 1013.2 |
| 20260505165521 | 63 | 73 | 3.0 | 7.0 | 0.00 | 0.00 | 0.00 | 47 | 1013.2 |
| 20260505164517 | 62 | 13 | 2.0 | 6.0 | 0.00 | 0.00 | 0.00 | 48 | 1013.3 |
| 20260505163517 | 61 | 75 | 2.0 | 8.0 | 0.00 | 0.00 | 0.00 | 51 | 1013.3 |
| 20260505162518 | 59 | 237 | 1.0 | 4.0 | 0.00 | 0.00 | 0.00 | 55 | 1013.2 |
| 20260505161518 | 58 | 230 | 2.0 | 6.0 | 0.00 | 0.00 | 0.00 | 58 | 1013.2 |
| 20260505160517 | 57 | 225 | 2.0 | 6.0 | 0.00 | 0.00 | 0.00 | 59 | 1013.2 |
| 20260505152519 | 52 | 223 | 1.0 | 4.0 | 0.00 | 0.00 | 0.00 | 69 | 1013.2 |
| 20260505151535 | 51 | 226 | 1.0 | 4.0 | 0.00 | 0.00 | 0.00 | 72 | 1013.1 |
| 20260505150518 | 51 | 256 | 1.0 | 4.0 | 0.00 | 0.00 | 0.00 | 72 | 1013.1 |
| 20260505140519 | 46 | 260 | 2.0 | 5.0 | 0.00 | 0.00 | 0.00 | 76 | 1012.3 |
| 20260505124519 | 43 | 347 | 2.0 | 4.0 | 0.00 | 0.00 | 0.00 | 76 | 1011.9 |
| 20260505123519 | 43 | 328 | 1.0 | 4.0 | 0.00 | 0.00 | 0.00 | 75 | 1011.8 |
| 20260505122539 | 43 | 304 | 1.0 | 3.0 | 0.00 | 0.00 | 0.00 | 75 | 1011.7 |
| 20260505121520 | 44 | 352 | 0.0 | 2.0 | 0.00 | 0.00 | 0.00 | 75 | 1011.7 |
| 20260505120517 | 44 | 326 | 1.0 | 2.0 | 0.00 | 0.00 | 0.00 | 74 | 1011.6 |
| 20260505115519 | 44 | 288 | 1.0 | 2.0 | 0.00 | 0.00 | 0.00 | 73 | 1011.6 |
| 20260505114519 | 45 | 351 | 1.0 | 3.0 | 0.00 | 0.00 | 0.00 | 73 | 1011.6 |
| 20260505113516 | 45 | 304 | 1.0 | 4.0 | 0.00 | 0.00 | 0.00 | 72 | 1011.6 |
| 20260505112517 | 44 | 298 | 1.0 | 4.0 | 0.00 | 0.00 | 0.00 | 73 | 1011.5 |
| 20260505111518 | 44 | 8 | 1.0 | 3.0 | 0.00 | 0.00 | 0.00 | 75 | 1011.5 |
| 20260505110537 | 45 | 4 | 1.0 | 2.0 | 0.00 | 0.00 | 0.00 | 74 | 1011.5 |
| 20260505101518 | 47 | 350 | 1.0 | 3.0 | 0.00 | 0.00 | 0.00 | 76 | 1011.4 |
| 20260505100518 | 47 | 16 | 1.0 | 4.0 | 0.00 | 0.00 | 0.00 | 77 | 1011.4 |
| 20260505095518 | 48 | 355 | 0.0 | 2.0 | 0.00 | 0.00 | 0.00 | 77 | 1011.3 |
| 20260505094519 | 47 | 327 | 1.0 | 3.0 | 0.00 | 0.00 | 0.00 | 76 | 1011.3 |
| 20260505093519 | 47 | 356 | 0.0 | 2.0 | 0.00 | 0.00 | 0.00 | 76 | 1011.4 |
| 20260505092539 | 46 | 342 | 0.0 | 2.0 | 0.00 | 0.00 | 0.00 | 77 | 1011.4 |
| 20260505091519 | 46 | 13 | 0.0 | 3.0 | 0.00 | 0.00 | 0.00 | 76 | 1011.4 |
| 20260505090516 | 46 | 3 | 1.0 | 3.0 | 0.00 | 0.00 | 0.00 | 74 | 1011.3 |
| 20260505085519 | 45 | 10 | 1.0 | 4.0 | 0.00 | 0.00 | 0.00 | 73 | 1011.3 |
| 20260505084519 | 46 | 191 | 0.0 | 1.0 | 0.00 | 0.00 | 0.00 | 74 | 1011.3 |
| 20260505083539 | 46 | 28 | 1.0 | 4.0 | 0.00 | 0.00 | 0.00 | 73 | 1011.4 |
| 20260505082516 | 46 | 15 | 2.0 | 4.0 | 0.00 | 0.00 | 0.00 | 70 | 1011.3 |
| 20260505081516 | 47 | 348 | 0.0 | 1.0 | 0.00 | 0.00 | 0.00 | 68 | 1011.3 |
| 20260505080520 | 49 | 340 | 0.0 | 1.0 | 0.00 | 0.00 | 0.00 | 67 | 1011.3 |
| 20260505075520 | 49 | 1 | 2.0 | 4.0 | 0.00 | 0.00 | 0.00 | 68 | 1011.3 |
| 20260505074518 | 50 | 15 | 2.0 | 4.0 | 0.00 | 0.00 | 0.00 | 68 | 1011.4 |
| 20260505073518 | 50 | 344 | 0.0 | 2.0 | 0.00 | 0.00 | 0.00 | 67 | 1011.4 |
| 20260505072518 | 51 | 20 | 1.0 | 6.0 | 0.00 | 0.00 | 0.00 | 65 | 1011.4 |
| 20260505071518 | 52 | 350 | 0.0 | 1.0 | 0.00 | 0.00 | 0.00 | 62 | 1011.3 |
| 20260505070519 | 52 | 10 | 2.0 | 5.0 | 0.00 | 0.00 | 0.00 | 60 | 1011.1 |
| 20260505065518 | 53 | 221 | 1.0 | 4.0 | 0.00 | 0.00 | 0.00 | 57 | 1011.0 |
| 20260505064519 | 53 | 218 | 1.0 | 3.0 | 0.00 | 0.00 | 0.00 | 55 | 1010.8 |
| 20260505063518 | 53 | 309 | 1.0 | 3.0 | 0.00 | 0.00 | 0.00 | 51 | 1010.8 |
| 20260505062519 | 54 | 284 | 2.0 | 4.0 | 0.00 | 0.00 | 0.00 | 51 | 1010.7 |
| 20260505061540 | 55 | 284 | 1.0 | 2.0 | 0.00 | 0.00 | 0.00 | 50 | 1010.6 |
| 20260505060519 | 57 | 319 | 0.0 | 3.0 | 0.00 | 0.00 | 0.00 | 47 | 1010.6 |
| 20260505055519 | 59 | 302 | 1.0 | 3.0 | 0.00 | 0.00 | 0.00 | 43 | 1010.6 |
| 20260505054516 | 59 | 352 | 1.0 | 5.0 | 0.00 | 0.00 | 0.00 | 42 | 1010.5 |
| 20260505053520 | 60 | 16 | 1.0 | 7.0 | 0.00 | 0.00 | 0.00 | 42 | 1010.6 |
| 20260505052600 | 60 | 82 | 2.0 | 4.0 | 0.00 | 0.00 | 0.00 | 41 | 1010.6 |
| 20260505051517 | 61 | 75 | 1.0 | 4.0 | 0.00 | 0.00 | 0.00 | 41 | 1010.6 |
| 20260505050517 | 62 | 73 | 1.0 | 3.0 | 0.00 | 0.00 | 0.00 | 41 | 1010.6 |
| 20260505041518 | 63 | 31 | 4.0 | 8.0 | 0.00 | 0.00 | 0.00 | 45 | 1010.0 |
| 20260505040518 | 63 | 26 | 4.0 | 9.0 | 0.00 | 0.00 | 0.00 | 46 | 1009.8 |
| 20260505035519 | 63 | 18 | 4.0 | 9.0 | 0.00 | 0.00 | 0.00 | 47 | 1009.7 |
| 20260505034539 | 64 | 27 | 6.0 | 12.0 | 0.00 | 0.00 | 0.00 | 48 | 1009.6 |
| 20260505033518 | 64 | 30 | 5.0 | 10.0 | 0.00 | 0.00 | 0.00 | 47 | 1009.6 |
| 20260505032519 | 65 | 29 | 5.0 | 11.0 | 0.00 | 0.00 | 0.00 | 46 | 1009.5 |
| 20260505031516 | 66 | 24 | 5.0 | 10.0 | 0.00 | 0.00 | 0.00 | 43 | 1009.3 |
| 20260505030519 | 67 | 15 | 6.0 | 11.0 | 0.00 | 0.00 | 0.00 | 39 | 1009.1 |
| 20260505025517 | 67 | 15 | 4.0 | 9.0 | 0.00 | 0.00 | 0.00 | 37 | 1009.0 |
| 20260505024519 | 68 | 33 | 4.0 | 8.0 | 0.00 | 0.00 | 0.00 | 37 | 1009.0 |
| 20260505023539 | 69 | 32 | 6.0 | 15.0 | 0.00 | 0.00 | 0.00 | 37 | 1008.9 |
| 20260505022517 | 70 | 31 | 7.0 | 11.0 | 0.00 | 0.00 | 0.00 | 36 | 1008.8 |
| 20260505021517 | 71 | 38 | 5.0 | 15.0 | 0.00 | 0.00 | 0.00 | 36 | 1008.7 |
| 20260505020517 | 71 | 22 | 6.0 | 11.0 | 0.00 | 0.00 | 0.00 | 35 | 1008.7 |
| 20260505015520 | 72 | 35 | 5.0 | 9.0 | 0.00 | 0.00 | 0.00 | 34 | 1008.6 |
| 20260505014541 | 73 | 45 | 4.0 | 9.0 | 0.00 | 0.00 | 0.00 | 34 | 1008.6 |